Location: lozzo di cadore
(46.4899°N, 12.4508°E)
Time: 13:47:34
(UTC+02:00)

Envisat - Pass Details

Date: 01 May 2025
Orbit: 761 x 763 km, 98.3° (Epoch: 14 May)

Event Time Altitude Azimuth Distance (km) Brightness Sun altitude
Rises 03:30:30 0° 20° (NNE) 3,234 7.6 -20.5°
Reaches altitude 10° 03:32:59 10° 29° (NNE) 2,303 6.7 -20.2°
Maximum altitude 03:37:42 38° 97° (E) 1,152 4.1 -19.7°
Enters shadow 03:41:28 15° 160° (SSE) 1,969 4.8 -19.3°
